Location: Grand Moustoir
(47.8355°N, 3.3120°W)
Time: 16:00:26
(UTC+00:00)

Cosmos 1697 Rocket - Pass Details

Date: 20 January 2020
Orbit: 833 x 843 km, 71.0° (Epoch: 19 February)

Event Time Altitude Azimuth Distance (km) Brightness Sun altitude
Exits shadow 06:41:23 11° 254° (WSW) 2,395 4.6 -12.0°
Maximum altitude 06:46:01 28° 312° (NW) 1,515 3.5 -11.3°
Drops below altitude 10° 06:50:50 10° 11° (NNE) 2,454 5.0 -10.5°
Sets 06:53:38 0° 23° (NNE) 3,392 5.9 -10.1°
